Time,TemperatureF,DewpointF,PressureIn,WindDirection,WindDirectionDegrees,WindSpeedMPH,WindSpeedGustMPH,Humidity,HourlyPrecipIn,Conditions,Clouds,dailyrainin,SoftwareType,DateUTC
2013-06-15 00:02:00,68.0,65.3,29.84,South,178,0.0,1.0,91,0.00,,OVC250,0.00,VWS V14.01,2013-06-15 05:02:00,
2013-06-15 00:07:00,68.1,65.4,29.83,South,178,0.0,1.0,91,0.00,,OVC250,0.00,VWS V14.01,2013-06-15 05:07:00,
2013-06-15 00:12:00,68.2,65.5,29.84,South,181,3.0,4.0,91,0.00,,OVC250,0.00,VWS V14.01,2013-06-15 05:12:00,
2013-06-15 00:17:00,68.4,65.7,29.84,SSE,162,3.0,3.0,91,0.00,,OVC250,0.00,VWS V14.01,2013-06-15 05:17:00,
2013-06-15 00:22:00,68.5,65.8,29.84,SSE,153,4.0,5.0,91,0.00,,OVC250,0.00,VWS V14.01,2013-06-15 05:22:00,
2013-06-15 00:27:00,68.4,65.4,29.83,SSE,152,0.0,1.0,90,0.00,,OVC250,0.00,VWS V14.01,2013-06-15 05:27:00,
2013-06-15 00:32:00,68.4,65.4,29.83,SSE,152,0.0,0.0,90,0.00,,OVC250,0.00,VWS V14.01,2013-06-15 05:32:00,
2013-06-15 00:37:00,68.3,65.3,29.83,SE,133,2.0,2.0,90,0.00,,OVC250,0.00,VWS V14.01,2013-06-15 05:37:00,
2013-06-15 00:42:00,68.4,65.0,29.83,SSE,160,3.0,5.0,89,0.00,,OVC250,0.00,VWS V14.01,2013-06-15 05:42:00,
2013-06-15 00:47:00,68.7,65.3,29.82,South,178,6.0,7.0,89,0.00,,OVC250,0.00,VWS V14.01,2013-06-15 05:47:00,
2013-06-15 00:52:00,69.0,65.3,29.82,SSE,161,8.0,10.0,88,0.00,,OVC250,0.00,VWS V14.01,2013-06-15 05:52:00,
2013-06-15 00:57:00,69.3,64.9,29.82,South,186,8.0,8.0,86,0.00,,OVC250,0.00,VWS V14.01,2013-06-15 05:57:00,
2013-06-15 01:02:00,69.6,65.2,29.82,SSE,162,4.0,8.0,86,0.00,,OVC250,0.00,VWS V14.01,2013-06-15 06:02:00,
2013-06-15 01:07:00,69.8,65.4,29.82,SSE,151,4.0,5.0,86,0.00,,OVC250,0.00,VWS V14.01,2013-06-15 06:07:00,
2013-06-15 01:12:00,70.0,65.6,29.82,SE,145,7.0,7.0,86,0.00,,OVC250,0.00,VWS V14.01,2013-06-15 06:12:00,
2013-06-15 01:17:00,70.5,65.8,29.82,SE,141,10.0,11.0,85,0.00,,OVC250,0.00,VWS V14.01,2013-06-15 06:17:00,
2013-06-15 01:22:00,71.0,65.9,29.81,South,182,7.0,15.0,84,0.00,,OVC250,0.00,VWS V14.01,2013-06-15 06:22:00,
2013-06-15 01:27:00,71.0,65.6,29.80,South,173,11.0,11.0,83,0.00,,OVC250,0.00,VWS V14.01,2013-06-15 06:27:00,
2013-06-15 01:32:00,71.0,65.6,29.80,SSE,162,13.0,13.0,83,0.00,,OVC250,0.00,VWS V14.01,2013-06-15 06:32:00,
2013-06-15 01:37:00,71.0,65.6,29.81,South,180,6.0,7.0,83,0.00,,OVC250,0.00,VWS V14.01,2013-06-15 06:37:00,
2013-06-15 01:42:00,71.0,65.2,29.81,SSE,162,4.0,7.0,82,0.00,,OVC250,0.00,VWS V14.01,2013-06-15 06:42:00,
2013-06-15 01:47:00,70.9,65.1,29.81,SSE,158,3.0,8.0,82,0.00,,OVC250,0.00,VWS V14.01,2013-06-15 06:47:00,
2013-06-15 01:52:00,70.7,64.9,29.82,South,172,7.0,8.0,82,0.00,,OVC250,0.00,VWS V14.01,2013-06-15 06:52:00,
2013-06-15 01:57:00,70.4,64.7,29.81,South,177,4.0,9.0,82,0.00,,OVC250,0.00,VWS V14.01,2013-06-15 06:57:00,
2013-06-15 02:02:00,70.3,64.6,29.81,SSE,164,3.0,8.0,82,0.00,,OVC250,0.00,VWS V14.01,2013-06-15 07:02:00,
2013-06-15 02:07:00,70.2,64.4,29.81,SSE,166,6.0,8.0,82,0.00,,OVC250,0.00,VWS V14.01,2013-06-15 07:07:00,
2013-06-15 02:12:00,70.3,64.6,29.81,South,172,8.0,9.0,82,0.00,,OVC250,0.00,VWS V14.01,2013-06-15 07:12:00,
2013-06-15 02:17:00,70.5,64.4,29.81,SE,141,3.0,9.0,81,0.00,,OVC250,0.00,VWS V14.01,2013-06-15 07:17:00,
2013-06-15 02:22:00,70.8,64.7,29.82,SE,135,6.0,9.0,81,0.00,,OVC250,0.00,VWS V14.01,2013-06-15 07:22:00,
2013-06-15 02:27:00,70.9,64.8,29.82,SSE,167,3.0,10.0,81,0.00,,OVC250,0.00,VWS V14.01,2013-06-15 07:27:00,
2013-06-15 02:33:00,70.8,64.7,29.82,SSE,158,6.0,8.0,81,0.00,,OVC250,0.00,VWS V14.01,2013-06-15 07:33:00,
2013-06-15 02:38:00,71.0,65.2,29.81,SSE,168,10.0,12.0,82,0.00,,OVC250,0.00,VWS V14.01,2013-06-15 07:38:00,
2013-06-15 02:43:00,71.0,65.2,29.81,SSE,156,7.0,12.0,82,0.00,,OVC250,0.00,VWS V14.01,2013-06-15 07:43:00,
2013-06-15 02:48:00,71.1,65.3,29.80,South,174,9.0,13.0,82,0.00,,OVC250,0.00,VWS V14.01,2013-06-15 07:48:00,
2013-06-15 02:53:00,71.2,65.4,29.80,SSE,158,9.0,15.0,82,0.00,,BKN250,0.00,VWS V14.01,2013-06-15 07:53:00,
2013-06-15 02:58:00,71.3,65.9,29.80,SSE,166,13.0,15.0,83,0.00,,BKN250,0.00,VWS V14.01,2013-06-15 07:58:00,
2013-06-15 03:03:00,71.5,66.1,29.80,South,185,8.0,12.0,83,0.00,,BKN250,0.00,VWS V14.01,2013-06-15 08:03:00,
2013-06-15 03:08:00,71.7,66.3,29.80,SSE,167,13.0,16.0,83,0.00,,BKN250,0.00,VWS V14.01,2013-06-15 08:08:00,
2013-06-15 03:13:00,71.8,66.0,29.79,SSE,149,9.0,16.0,82,0.00,,BKN250,0.00,VWS V14.01,2013-06-15 08:13:00,
2013-06-15 03:18:00,71.6,66.2,29.79,South,187,12.0,17.0,83,0.00,,BKN250,0.00,VWS V14.01,2013-06-15 08:18:00,
2013-06-15 03:23:00,71.5,66.1,29.79,SSE,164,18.0,20.0,83,0.00,,BKN250,0.00,VWS V14.01,2013-06-15 08:23:00,
2013-06-15 03:28:00,71.5,66.1,29.78,South,178,15.0,17.0,83,0.00,,BKN250,0.00,VWS V14.01,2013-06-15 08:28:00,
2013-06-15 03:33:00,71.3,65.9,29.78,South,172,17.0,20.0,83,0.00,,BKN250,0.00,VWS V14.01,2013-06-15 08:33:00,
2013-06-15 03:38:00,71.3,65.9,29.78,South,186,9.0,15.0,83,0.00,,BKN250,0.00,VWS V14.01,2013-06-15 08:38:00,
2013-06-15 03:43:00,71.3,65.9,29.78,South,170,10.0,17.0,83,0.00,,BKN250,0.00,VWS V14.01,2013-06-15 08:43:00,
2013-06-15 03:48:00,71.2,66.1,29.78,SSE,162,7.0,9.0,84,0.00,,BKN250,0.00,VWS V14.01,2013-06-15 08:48:00,
2013-06-15 03:53:00,71.2,65.8,29.79,South,184,2.0,7.0,83,0.00,,BKN250,0.00,VWS V14.01,2013-06-15 08:53:00,
2013-06-15 03:58:00,71.1,66.0,29.79,ESE,112,4.0,4.0,84,0.00,,BKN250,0.00,VWS V14.01,2013-06-15 08:58:00,
2013-06-15 04:03:00,70.8,65.7,29.80,ESE,110,7.0,10.0,84,0.00,,BKN250,0.00,VWS V14.01,2013-06-15 09:03:00,
2013-06-15 04:08:00,70.6,65.5,29.79,SE,134,5.0,7.0,84,0.00,,BKN250,0.00,VWS V14.01,2013-06-15 09:08:00,
2013-06-15 04:13:00,70.4,65.7,29.79,SSE,158,2.0,4.0,85,0.00,,BKN250,0.00,VWS V14.01,2013-06-15 09:13:00,
2013-06-15 04:18:00,70.2,65.5,29.79,South,172,3.0,10.0,85,0.00,,BKN250,0.00,VWS V14.01,2013-06-15 09:18:00,
2013-06-15 04:23:00,69.9,65.5,29.79,SSE,151,2.0,7.0,86,0.00,,BKN250,0.00,VWS V14.01,2013-06-15 09:23:00,
2013-06-15 04:28:00,69.8,65.4,29.80,ESE,119,5.0,5.0,86,0.00,,BKN250,0.00,VWS V14.01,2013-06-15 09:28:00,
2013-06-15 04:33:00,69.8,65.4,29.80,ESE,115,5.0,5.0,86,0.00,,BKN250,0.00,VWS V14.01,2013-06-15 09:33:00,
2013-06-15 04:38:00,69.7,65.3,29.80,East,84,6.0,8.0,86,0.00,,BKN250,0.00,VWS V14.01,2013-06-15 09:38:00,
2013-06-15 04:43:00,69.5,65.1,29.80,SSE,158,3.0,10.0,86,0.00,,BKN250,0.00,VWS V14.01,2013-06-15 09:43:00,
2013-06-15 04:48:00,69.4,65.0,29.80,SE,139,4.0,8.0,86,0.00,,BKN250,0.00,VWS V14.01,2013-06-15 09:48:00,
2013-06-15 04:53:00,69.3,64.9,29.80,SE,143,5.0,8.0,86,0.00,,BKN250,0.00,VWS V14.01,2013-06-15 09:53:00,
2013-06-15 04:58:00,69.1,65.1,29.80,SSE,157,2.0,6.0,87,0.00,,BKN250,0.00,VWS V14.01,2013-06-15 09:58:00,
2013-06-15 05:03:00,68.9,64.9,29.80,SE,141,2.0,3.0,87,0.00,,BKN250,0.00,VWS V14.01,2013-06-15 10:03:00,
2013-06-15 05:08:00,68.8,64.8,29.79,ESE,110,3.0,5.0,87,0.00,,BKN250,0.00,VWS V14.01,2013-06-15 10:08:00,
2013-06-15 05:13:00,68.7,64.7,29.79,SE,139,1.0,6.0,87,0.00,,BKN250,0.00,VWS V14.01,2013-06-15 10:13:00,
2013-06-15 05:18:00,68.7,64.7,29.79,East,101,1.0,5.0,87,0.00,,BKN250,0.00,VWS V14.01,2013-06-15 10:18:00,
2013-06-15 05:23:00,68.6,64.9,29.79,NE,43,0.0,1.0,88,0.00,,BKN250,0.00,VWS V14.01,2013-06-15 10:23:00,
2013-06-15 05:28:00,68.5,64.8,29.80,SSE,157,0.0,5.0,88,0.00,,BKN250,0.00,VWS V14.01,2013-06-15 10:28:00,
2013-06-15 05:33:00,68.4,64.7,29.79,SE,134,4.0,4.0,88,0.00,,BKN250,0.00,VWS V14.01,2013-06-15 10:33:00,
2013-06-15 05:38:00,68.3,64.6,29.79,SSE,161,3.0,4.0,88,0.00,,BKN250,0.00,VWS V14.01,2013-06-15 10:38:00,
2013-06-15 05:43:00,68.3,64.9,29.79,SSE,156,1.0,4.0,89,0.00,,BKN250,0.00,VWS V14.01,2013-06-15 10:43:00,
2013-06-15 05:48:00,68.2,64.8,29.79,ESE,104,1.0,1.0,89,0.00,,BKN250,0.00,VWS V14.01,2013-06-15 10:48:00,
2013-06-15 05:53:00,68.2,64.8,29.80,East,95,1.0,2.0,89,0.00,,BKN250,0.00,VWS V14.01,2013-06-15 10:53:00,
2013-06-15 05:58:00,68.2,64.8,29.80,SE,126,0.0,2.0,89,0.00,,BKN250,0.00,VWS V14.01,2013-06-15 10:58:00,
2013-06-15 06:03:00,68.2,64.8,29.80,SE,136,0.0,3.0,89,0.00,,BKN250,0.00,VWS V14.01,2013-06-15 11:03:00,
2013-06-15 06:08:00,68.3,64.9,29.80,South,181,4.0,5.0,89,0.00,,BKN250,0.00,VWS V14.01,2013-06-15 11:08:00,
2013-06-15 06:13:00,68.5,65.1,29.80,South,181,6.0,6.0,89,0.00,,BKN250,0.00,VWS V14.01,2013-06-15 11:13:00,
2013-06-15 06:19:00,68.9,65.5,29.80,South,176,5.0,8.0,89,0.00,,BKN250,0.00,VWS V14.01,2013-06-15 11:19:00,
2013-06-15 06:24:00,69.2,65.8,29.80,South,183,4.0,6.0,89,0.00,,BKN250,0.00,VWS V14.01,2013-06-15 11:24:00,
2013-06-15 06:29:00,69.4,65.7,29.80,SSE,152,9.0,12.0,88,0.00,,BKN250,0.00,VWS V14.01,2013-06-15 11:29:00,
2013-06-15 06:34:00,69.6,65.9,29.80,South,182,8.0,12.0,88,0.00,,BKN250,0.00,VWS V14.01,2013-06-15 11:34:00,
2013-06-15 06:39:00,69.6,65.9,29.80,SSE,153,7.0,11.0,88,0.00,,BKN250,0.00,VWS V14.01,2013-06-15 11:39:00,
2013-06-15 06:44:00,69.6,65.9,29.80,South,188,6.0,10.0,88,0.00,,BKN250,0.00,VWS V14.01,2013-06-15 11:44:00,
2013-06-15 06:49:00,69.5,65.8,29.80,SSE,158,5.0,6.0,88,0.00,,BKN250,0.00,VWS V14.01,2013-06-15 11:49:00,
2013-06-15 06:54:00,69.6,65.9,29.80,South,169,3.0,5.0,88,0.00,,BKN250,0.00,VWS V14.01,2013-06-15 11:54:00,
2013-06-15 06:59:00,69.8,66.1,29.80,South,171,5.0,6.0,88,0.00,,BKN250,0.00,VWS V14.01,2013-06-15 11:59:00,
2013-06-15 07:04:00,69.9,65.9,29.80,South,172,3.0,7.0,87,0.00,,BKN250,0.00,VWS V14.01,2013-06-15 12:04:00,
2013-06-15 07:09:00,70.1,66.4,29.80,SE,145,6.0,9.0,88,0.00,,BKN250,0.00,VWS V14.01,2013-06-15 12:09:00,
2013-06-15 07:14:00,70.1,66.1,29.81,SSW,196,5.0,8.0,87,0.00,,BKN250,0.00,VWS V14.01,2013-06-15 12:14:00,
2013-06-15 07:19:00,70.3,66.6,29.81,South,181,6.0,8.0,88,0.00,,BKN250,0.00,VWS V14.01,2013-06-15 12:19:00,
2013-06-15 07:24:00,70.4,66.7,29.81,South,177,6.0,8.0,88,0.00,,BKN250,0.00,VWS V14.01,2013-06-15 12:24:00,
2013-06-15 07:29:00,71.0,67.3,29.81,South,191,4.0,8.0,88,0.00,,BKN250,0.00,VWS V14.01,2013-06-15 12:29:00,
2013-06-15 07:38:00,72.1,68.0,29.80,WSW,242,3.0,5.0,87,0.00,,BKN250,0.00,VWS V14.01,2013-06-15 12:38:00,
2013-06-15 07:43:00,72.8,68.7,29.80,South,187,4.0,6.0,87,0.00,,BKN250,0.00,VWS V14.01,2013-06-15 12:43:00,
2013-06-15 07:48:00,73.2,68.8,29.79,South,172,5.0,8.0,86,0.00,,BKN250,0.00,VWS V14.01,2013-06-15 12:48:00,
2013-06-15 07:53:00,73.4,69.0,29.79,South,187,8.0,10.0,86,0.00,,BKN250,0.00,VWS V14.01,2013-06-15 12:53:00,
2013-06-15 08:03:00,74.1,69.3,29.79,SSW,212,3.0,6.0,85,0.00,,BKN250,0.00,VWS V14.01,2013-06-15 13:03:00,
2013-06-15 08:08:00,74.2,69.1,29.79,SSW,201,5.0,5.0,84,0.00,,BKN250,0.00,VWS V14.01,2013-06-15 13:08:00,
2013-06-15 08:13:00,74.3,68.8,29.79,SW,233,4.0,7.0,83,0.00,,BKN250,0.00,VWS V14.01,2013-06-15 13:13:00,
2013-06-15 08:18:00,74.6,68.4,29.79,SW,235,3.0,6.0,81,0.00,,BKN250,0.00,VWS V14.01,2013-06-15 13:18:00,
2013-06-15 08:23:00,75.1,67.8,29.80,SW,235,4.0,4.0,78,0.00,,BKN250,0.00,VWS V14.01,2013-06-15 13:23:00,
2013-06-15 08:28:00,76.0,67.9,29.80,SW,216,8.0,8.0,76,0.00,,BKN250,0.00,VWS V14.01,2013-06-15 13:28:00,
2013-06-15 08:33:00,77.2,68.3,29.80,SSW,210,3.0,5.0,74,0.00,,BKN250,0.00,VWS V14.01,2013-06-15 13:33:00,
2013-06-15 08:38:00,78.1,69.5,29.80,South,178,1.0,4.0,75,0.00,,BKN250,0.00,VWS V14.01,2013-06-15 13:38:00,
2013-06-15 08:43:00,78.7,69.3,29.79,SW,219,2.0,4.0,73,0.00,,BKN250,0.00,VWS V14.01,2013-06-15 13:43:00,
2013-06-15 08:48:00,79.0,69.2,29.80,SSW,201,2.0,4.0,72,0.00,,BKN250,0.00,VWS V14.01,2013-06-15 13:48:00,
2013-06-15 08:53:00,79.4,69.2,29.79,South,184,3.0,4.0,71,0.00,,BKN250,0.00,VWS V14.01,2013-06-15 13:53:00,
2013-06-15 08:58:00,79.8,67.9,29.79,South,185,3.0,4.0,67,0.00,,BKN250,0.00,VWS V14.01,2013-06-15 13:58:00,
2013-06-15 09:03:00,80.5,70.7,29.79,SSE,158,4.0,6.0,72,0.00,,BKN250,0.00,VWS V14.01,2013-06-15 14:03:00,
2013-06-15 09:08:00,80.0,70.2,29.79,SSE,154,3.0,6.0,72,0.00,,BKN250,0.00,VWS V14.01,2013-06-15 14:08:00,
2013-06-15 09:13:00,78.8,69.8,29.80,South,189,4.0,7.0,74,0.00,,BKN250,0.00,VWS V14.01,2013-06-15 14:13:00,
2013-06-15 09:19:00,78.2,69.6,29.80,South,187,2.0,5.0,75,0.00,,BKN250,0.00,VWS V14.01,2013-06-15 14:19:00,
2013-06-15 09:24:00,78.0,69.8,29.80,South,175,3.0,3.0,76,0.00,,BKN250,0.00,VWS V14.01,2013-06-15 14:24:00,
2013-06-15 09:29:00,78.0,70.2,29.80,South,188,1.0,1.0,77,0.00,,BKN250,0.00,VWS V14.01,2013-06-15 14:29:00,
2013-06-15 09:34:00,78.2,70.0,29.80,SW,219,2.0,3.0,76,0.00,,BKN250,0.00,VWS V14.01,2013-06-15 14:34:00,
2013-06-15 09:39:00,78.5,68.3,29.80,SW,236,0.0,0.0,71,0.00,,BKN250,0.00,VWS V14.01,2013-06-15 14:39:00,
2013-06-15 09:44:00,79.0,68.4,29.80,SW,236,0.0,2.0,70,0.00,,BKN250,0.00,VWS V14.01,2013-06-15 14:44:00,
2013-06-15 09:49:00,79.3,67.8,29.80,NE,35,3.0,3.0,68,0.00,,BKN250,0.00,VWS V14.01,2013-06-15 14:49:00,
2013-06-15 09:54:00,79.6,66.8,29.81,WNW,292,2.0,5.0,65,0.00,,BKN250,0.00,VWS V14.01,2013-06-15 14:54:00,
2013-06-15 09:59:00,80.0,64.9,29.81,SW,233,0.0,4.0,60,0.00,,BKN250,0.00,VWS V14.01,2013-06-15 14:59:00,
2013-06-15 10:04:00,80.4,64.8,29.81,WNW,300,2.0,6.0,59,0.00,,BKN250,0.00,VWS V14.01,2013-06-15 15:04:00,
2013-06-15 10:09:00,80.7,64.6,29.81,WSW,257,3.0,5.0,58,0.00,,BKN250,0.00,VWS V14.01,2013-06-15 15:09:00,
2013-06-15 10:14:00,81.0,65.3,29.81,West,264,3.0,5.0,59,0.00,,BKN250,0.00,VWS V14.01,2013-06-15 15:14:00,
2013-06-15 10:19:00,81.2,66.0,29.81,WSW,251,5.0,5.0,60,0.00,,BKN250,0.00,VWS V14.01,2013-06-15 15:19:00,
2013-06-15 10:24:00,81.3,66.1,29.81,SW,220,6.0,6.0,60,0.00,,BKN250,0.00,VWS V14.01,2013-06-15 15:24:00,
2013-06-15 10:29:00,81.4,66.2,29.81,WSW,247,3.0,4.0,60,0.00,,BKN250,0.00,VWS V14.01,2013-06-15 15:29:00,
2013-06-15 10:34:00,81.4,66.2,29.82,West,262,1.0,5.0,60,0.00,,BKN250,0.00,VWS V14.01,2013-06-15 15:34:00,
2013-06-15 10:39:00,81.6,66.9,29.82,West,259,1.0,4.0,61,0.00,,BKN250,0.00,VWS V14.01,2013-06-15 15:39:00,
2013-06-15 10:44:00,81.8,67.1,29.83,WNW,297,3.0,4.0,61,0.00,,BKN250,0.00,VWS V14.01,2013-06-15 15:44:00,
2013-06-15 10:49:00,81.8,66.6,29.83,WSW,248,2.0,3.0,60,0.00,,BKN250,0.00,VWS V14.01,2013-06-15 15:49:00,
2013-06-15 10:54:00,81.6,66.4,29.84,NW,309,2.0,6.0,60,0.00,,-RA,0.00,VWS V14.01,2013-06-15 15:54:00,
2013-06-15 10:59:00,81.6,66.9,29.84,NNE,26,4.0,4.0,61,0.00,,-RA,0.00,VWS V14.01,2013-06-15 15:59:00,
2013-06-15 11:04:00,81.9,67.6,29.84,West,281,1.0,4.0,62,0.00,,-RA,0.00,VWS V14.01,2013-06-15 16:04:00,
2013-06-15 11:09:00,82.1,67.8,29.85,WNW,297,3.0,3.0,62,0.00,,-RA,0.00,VWS V14.01,2013-06-15 16:09:00,
2013-06-15 11:14:00,82.0,67.2,29.85,WNW,291,1.0,2.0,61,0.00,,-RA,0.00,VWS V14.01,2013-06-15 16:14:00,
2013-06-15 11:19:00,81.7,67.9,29.85,WNW,293,0.0,2.0,63,0.00,,-RA,0.00,VWS V14.01,2013-06-15 16:19:00,
2013-06-15 11:24:00,81.5,66.8,29.85,WSW,239,2.0,2.0,61,0.00,,-RA,0.00,VWS V14.01,2013-06-15 16:24:00,
2013-06-15 11:29:00,81.4,67.1,29.85,WNW,283,4.0,4.0,62,0.00,,-RA,0.00,VWS V14.01,2013-06-15 16:29:00,
2013-06-15 11:34:00,81.4,67.6,29.85,WNW,284,5.0,5.0,63,0.00,,-RA,0.00,VWS V14.01,2013-06-15 16:34:00,
2013-06-15 11:39:00,81.2,66.0,29.86,WNW,287,3.0,6.0,60,0.00,,-RA,0.00,VWS V14.01,2013-06-15 16:39:00,
2013-06-15 11:44:00,80.8,66.1,29.85,NW,306,0.0,3.0,61,0.00,,-RA,0.00,VWS V14.01,2013-06-15 16:44:00,
2013-06-15 11:49:00,80.6,66.8,29.85,NW,310,0.0,1.0,63,0.00,,-RA,0.00,VWS V14.01,2013-06-15 16:49:00,
2013-06-15 11:54:00,80.7,66.5,29.85,North,350,1.0,3.0,62,0.00,,BKN250,0.00,VWS V14.01,2013-06-15 16:54:00,
2013-06-15 11:59:00,80.8,66.6,29.85,WNW,296,3.0,5.0,62,0.00,,BKN250,0.00,VWS V14.01,2013-06-15 16:59:00,
2013-06-15 12:04:00,80.8,67.0,29.85,NNW,335,1.0,4.0,63,0.00,,BKN250,0.00,VWS V14.01,2013-06-15 17:04:00,
2013-06-15 12:09:00,80.6,66.8,29.85,NNW,337,1.0,4.0,63,0.00,,BKN250,0.00,VWS V14.01,2013-06-15 17:09:00,
2013-06-15 12:14:00,80.8,67.9,29.85,North,4,2.0,3.0,65,0.00,,BKN250,0.00,VWS V14.01,2013-06-15 17:14:00,
2013-06-15 12:19:00,80.7,66.9,29.85,WNW,289,1.0,6.0,63,0.00,,BKN250,0.00,VWS V14.01,2013-06-15 17:19:00,
2013-06-15 12:24:00,80.6,68.2,29.85,WNW,295,2.0,4.0,66,0.00,,BKN250,0.00,VWS V14.01,2013-06-15 17:24:00,
2013-06-15 12:29:00,80.3,67.9,29.85,WNW,297,0.0,4.0,66,0.00,,BKN250,0.00,VWS V14.01,2013-06-15 17:29:00,
2013-06-15 12:34:00,80.2,67.4,29.85,WNW,289,3.0,4.0,65,0.00,,BKN250,0.00,VWS V14.01,2013-06-15 17:34:00,
2013-06-15 12:39:00,80.2,68.3,29.85,NNE,25,2.0,2.0,67,0.00,,BKN250,0.00,VWS V14.01,2013-06-15 17:39:00,
2013-06-15 12:44:00,80.5,68.1,29.86,NW,322,2.0,3.0,66,0.00,,BKN250,0.00,VWS V14.01,2013-06-15 17:44:00,
2013-06-15 12:49:00,80.4,68.4,29.86,ENE,62,0.0,1.0,67,0.00,,BKN250,0.00,VWS V14.01,2013-06-15 17:49:00,
2013-06-15 12:54:00,80.5,68.5,29.86,WNW,289,0.0,2.0,67,0.00,,OVC250,0.00,VWS V14.01,2013-06-15 17:54:00,
2013-06-15 12:59:00,80.1,67.7,29.86,WNW,294,2.0,4.0,66,0.00,,OVC250,0.00,VWS V14.01,2013-06-15 17:59:00,
2013-06-15 13:04:00,79.7,68.2,29.86,WNW,295,2.0,2.0,68,0.00,,OVC250,0.00,VWS V14.01,2013-06-15 18:04:00,
2013-06-15 13:09:00,79.4,68.3,29.86,WNW,291,0.0,2.0,69,0.00,,OVC250,0.00,VWS V14.01,2013-06-15 18:09:00,
2013-06-15 13:14:00,79.3,68.3,29.86,WNW,296,3.0,3.0,69,0.00,,OVC250,0.00,VWS V14.01,2013-06-15 18:14:00,
2013-06-15 13:19:00,79.1,68.5,29.86,WNW,296,0.0,2.0,70,0.00,,OVC250,0.00,VWS V14.01,2013-06-15 18:19:00,
2013-06-15 13:24:00,79.0,68.4,29.86,WNW,293,3.0,3.0,70,0.00,,OVC250,0.00,VWS V14.01,2013-06-15 18:24:00,
2013-06-15 13:29:00,78.8,68.6,29.86,WNW,293,2.0,2.0,71,0.00,,OVC250,0.00,VWS V14.01,2013-06-15 18:29:00,
2013-06-15 13:34:00,78.6,68.4,29.87,WNW,298,0.0,2.0,71,0.00,,OVC250,0.00,VWS V14.01,2013-06-15 18:34:00,
2013-06-15 13:39:00,78.5,68.7,29.87,WNW,295,1.0,2.0,72,0.00,,OVC250,0.00,VWS V14.01,2013-06-15 18:39:00,
2013-06-15 13:44:00,78.4,69.0,29.88,WNW,295,0.0,2.0,73,0.00,,OVC250,0.00,VWS V14.01,2013-06-15 18:44:00,
2013-06-15 13:49:00,78.2,69.2,29.88,WNW,295,0.0,1.0,74,0.00,,OVC250,0.00,VWS V14.01,2013-06-15 18:49:00,
2013-06-15 13:54:00,78.1,69.1,29.88,West,262,3.0,3.0,74,0.00,,OVC120,0.00,VWS V14.01,2013-06-15 18:54:00,
2013-06-15 13:59:00,77.9,68.9,29.89,WNW,282,3.0,4.0,74,0.00,,OVC120,0.00,VWS V14.01,2013-06-15 18:59:00,
2013-06-15 14:04:00,77.7,69.2,29.89,WNW,282,0.0,3.0,75,0.00,,OVC120,0.00,VWS V14.01,2013-06-15 19:04:00,
2013-06-15 14:09:00,77.3,68.8,29.89,WNW,287,2.0,4.0,75,0.00,,OVC120,0.00,VWS V14.01,2013-06-15 19:09:00,
2013-06-15 14:14:00,76.8,69.4,29.90,WNW,287,2.0,2.0,78,0.00,,OVC120,0.01,VWS V14.01,2013-06-15 19:14:00,
2013-06-15 14:19:00,76.0,69.4,29.90,WNW,292,3.0,4.0,80,0.00,,OVC120,0.02,VWS V14.01,2013-06-15 19:19:00,
2013-06-15 14:24:00,75.0,69.1,29.91,WNW,283,5.0,5.0,82,0.00,,OVC120,0.03,VWS V14.01,2013-06-15 19:24:00,
2013-06-15 14:29:00,74.1,69.0,29.91,WSW,250,5.0,6.0,84,0.00,,OVC120,0.05,VWS V14.01,2013-06-15 19:29:00,
2013-06-15 14:34:00,73.4,68.3,29.92,WNW,290,7.0,10.0,84,0.00,,OVC120,0.07,VWS V14.01,2013-06-15 19:34:00,
2013-06-15 14:40:00,72.0,65.9,29.90,West,263,4.0,6.0,81,0.00,,OVC120,0.08,VWS V14.01,2013-06-15 19:40:00,
2013-06-15 14:45:00,70.9,64.8,29.90,WNW,297,2.0,5.0,81,0.00,,OVC120,0.08,VWS V14.01,2013-06-15 19:45:00,
2013-06-15 14:50:00,70.1,64.7,29.89,WNW,295,2.0,4.0,83,0.00,,OVC120,0.09,VWS V14.01,2013-06-15 19:50:00,
2013-06-15 14:55:00,69.7,64.7,29.89,WNW,286,2.0,6.0,84,0.00,,OVC120,0.09,VWS V14.01,2013-06-15 19:55:00,
2013-06-15 15:00:00,69.5,64.5,29.89,WNW,293,1.0,8.0,84,0.00,,OVC120,0.10,VWS V14.01,2013-06-15 20:00:00,
2013-06-15 15:05:00,69.4,64.7,29.88,WNW,287,1.0,5.0,85,0.00,,OVC120,0.10,VWS V14.01,2013-06-15 20:05:00,
2013-06-15 15:10:00,69.3,64.9,29.87,WNW,287,0.0,2.0,86,0.00,,OVC120,0.10,VWS V14.01,2013-06-15 20:10:00,
2013-06-15 15:15:00,69.3,64.6,29.86,WNW,289,3.0,4.0,85,0.00,,OVC120,0.10,VWS V14.01,2013-06-15 20:15:00,
2013-06-15 15:20:00,69.4,65.0,29.86,NNE,29,0.0,2.0,86,0.00,,OVC120,0.10,VWS V14.01,2013-06-15 20:20:00,
2013-06-15 15:25:00,69.5,65.5,29.85,NNE,29,2.0,3.0,87,0.00,,OVC120,0.10,VWS V14.01,2013-06-15 20:25:00,
2013-06-15 15:30:00,69.8,66.4,29.84,NNE,29,1.0,3.0,89,0.00,,OVC120,0.10,VWS V14.01,2013-06-15 20:30:00,
2013-06-15 15:35:00,70.3,66.6,29.84,NNE,29,0.0,0.0,88,0.00,,OVC120,0.10,VWS V14.01,2013-06-15 20:35:00,
2013-06-15 15:40:00,70.7,66.0,29.84,NNE,29,0.0,0.0,85,0.00,,OVC120,0.10,VWS V14.01,2013-06-15 20:40:00,
2013-06-15 15:45:00,71.2,66.1,29.83,NNE,29,0.0,1.0,84,0.00,,OVC120,0.10,VWS V14.01,2013-06-15 20:45:00,
2013-06-15 15:50:00,71.7,66.9,29.83,NNE,29,0.0,0.0,85,0.00,,OVC120,0.10,VWS V14.01,2013-06-15 20:50:00,
2013-06-15 15:55:00,71.9,66.1,29.83,NNE,29,0.0,0.0,82,0.00,,BKN250,0.10,VWS V14.01,2013-06-15 20:55:00,
2013-06-15 16:00:00,71.9,66.8,29.83,NNE,29,1.0,1.0,84,0.00,,BKN250,0.11,VWS V14.01,2013-06-15 21:00:00,
2013-06-15 16:05:00,71.5,66.8,29.81,NNE,25,3.0,4.0,85,0.00,,BKN250,0.11,VWS V14.01,2013-06-15 21:05:00,
2013-06-15 16:10:00,71.2,66.8,29.81,North,4,3.0,5.0,86,0.00,,BKN250,0.12,VWS V14.01,2013-06-15 21:10:00,
2013-06-15 16:15:00,70.9,66.5,29.81,NNE,12,5.0,6.0,86,0.00,,BKN250,0.12,VWS V14.01,2013-06-15 21:15:00,
2013-06-15 16:20:00,70.8,66.4,29.81,North,4,1.0,1.0,86,0.00,,BKN250,0.12,VWS V14.01,2013-06-15 21:20:00,
2013-06-15 16:25:00,70.6,65.9,29.81,North,10,4.0,5.0,85,0.00,,BKN250,0.12,VWS V14.01,2013-06-15 21:25:00,
2013-06-15 16:30:00,70.7,64.9,29.81,North,4,0.0,3.0,82,0.00,,BKN250,0.12,VWS V14.01,2013-06-15 21:30:00,
2013-06-15 16:35:00,70.9,65.8,29.81,North,4,0.0,0.0,84,0.00,,BKN250,0.12,VWS V14.01,2013-06-15 21:35:00,
2013-06-15 16:40:00,70.9,66.2,29.81,ESE,120,0.0,2.0,85,0.00,,BKN250,0.12,VWS V14.01,2013-06-15 21:40:00,
2013-06-15 16:45:00,70.8,66.1,29.82,SE,128,1.0,2.0,85,0.00,,SCT250,0.12,VWS V14.01,2013-06-15 21:45:00,
2013-06-15 16:50:00,71.0,66.6,29.82,South,169,1.0,3.0,86,0.00,,SCT250,0.12,VWS V14.01,2013-06-15 21:50:00,
2013-06-15 16:55:00,71.3,66.2,29.82,South,179,0.0,2.0,84,0.00,,SCT250,0.12,VWS V14.01,2013-06-15 21:55:00,
2013-06-15 17:00:00,71.6,66.5,29.82,SSE,153,2.0,3.0,84,0.00,,SCT250,0.12,VWS V14.01,2013-06-15 22:00:00,
2013-06-15 17:05:00,71.9,66.8,29.83,SSE,168,2.0,5.0,84,0.00,,SCT250,0.12,VWS V14.01,2013-06-15 22:05:00,
2013-06-15 17:10:00,71.9,66.5,29.83,South,185,4.0,5.0,83,0.00,,SCT250,0.12,VWS V14.01,2013-06-15 22:10:00,
2013-06-15 17:15:00,72.0,67.6,29.83,South,183,6.0,6.0,86,0.00,,SCT250,0.12,VWS V14.01,2013-06-15 22:15:00,
2013-06-15 17:20:00,71.7,67.3,29.82,South,172,5.0,7.0,86,0.00,,SCT250,0.12,VWS V14.01,2013-06-15 22:20:00,
2013-06-15 17:26:00,71.4,66.7,29.82,South,181,3.0,4.0,85,0.00,,SCT250,0.12,VWS V14.01,2013-06-15 22:26:00,
2013-06-15 17:31:00,71.6,67.2,29.82,South,170,2.0,4.0,86,0.00,,SCT250,0.12,VWS V14.01,2013-06-15 22:31:00,
2013-06-15 17:36:00,71.6,67.2,29.82,South,187,5.0,6.0,86,0.00,,SCT250,0.12,VWS V14.01,2013-06-15 22:36:00,
2013-06-15 17:41:00,71.7,66.9,29.82,South,183,6.0,8.0,85,0.00,,SCT250,0.12,VWS V14.01,2013-06-15 22:41:00,
2013-06-15 17:46:00,71.9,66.8,29.82,South,174,4.0,9.0,84,0.00,,SCT250,0.12,VWS V14.01,2013-06-15 22:46:00,
2013-06-15 17:51:00,71.8,66.0,29.82,South,175,5.0,6.0,82,0.00,,SCT250,0.12,VWS V14.01,2013-06-15 22:51:00,
2013-06-15 17:56:00,71.9,66.1,29.83,South,176,5.0,5.0,82,0.00,,SCT250,0.12,VWS V14.01,2013-06-15 22:56:00,
2013-06-15 18:01:00,72.2,66.4,29.83,South,187,3.0,6.0,82,0.00,,SCT250,0.12,VWS V14.01,2013-06-15 23:01:00,
2013-06-15 18:06:00,72.6,67.2,29.83,SSE,168,4.0,8.0,83,0.00,,SCT250,0.12,VWS V14.01,2013-06-15 23:06:00,
2013-06-15 18:11:00,73.1,67.3,29.83,SSE,156,5.0,5.0,82,0.00,,SCT250,0.12,VWS V14.01,2013-06-15 23:11:00,
2013-06-15 18:16:00,73.5,67.7,29.83,SSE,164,4.0,6.0,82,0.00,,SCT250,0.12,VWS V14.01,2013-06-15 23:16:00,
2013-06-15 18:21:00,73.3,67.1,29.83,South,183,3.0,6.0,81,0.00,,SCT250,0.12,VWS V14.01,2013-06-15 23:21:00,
2013-06-15 18:26:00,73.3,67.1,29.83,SSW,197,5.0,5.0,81,0.00,,SCT250,0.12,VWS V14.01,2013-06-15 23:26:00,
2013-06-15 18:31:00,73.4,67.2,29.83,SSE,162,3.0,4.0,81,0.00,,SCT250,0.12,VWS V14.01,2013-06-15 23:31:00,
2013-06-15 18:36:00,73.7,67.9,29.83,South,174,5.0,5.0,82,0.00,,SCT250,0.12,VWS V14.01,2013-06-15 23:36:00,
2013-06-15 18:41:00,73.8,67.2,29.83,SSW,197,3.0,7.0,80,0.00,,SCT250,0.12,VWS V14.01,2013-06-15 23:41:00,
2013-06-15 18:47:00,73.8,66.5,29.83,SSW,195,5.0,7.0,78,0.00,,SCT250,0.12,VWS V14.01,2013-06-15 23:47:00,
2013-06-15 18:52:00,73.4,66.1,29.83,SSW,203,4.0,5.0,78,0.00,,SCT250,0.12,VWS V14.01,2013-06-15 23:52:00,
2013-06-15 18:57:00,73.2,65.6,29.83,SSW,199,3.0,5.0,77,0.00,,SCT250,0.12,VWS V14.01,2013-06-15 23:57:00,
2013-06-15 19:02:00,73.0,65.7,29.83,South,188,3.0,5.0,78,0.00,,SCT250,0.12,VWS V14.01,2013-06-16 00:02:00,
2013-06-15 19:07:00,73.0,66.1,29.83,SSW,199,4.0,4.0,79,0.00,,SCT250,0.12,VWS V14.01,2013-06-16 00:07:00,
2013-06-15 19:12:00,72.9,66.4,29.84,SSE,168,3.0,6.0,80,0.00,,SCT250,0.12,VWS V14.01,2013-06-16 00:12:00,
2013-06-15 19:17:00,72.8,65.9,29.84,South,187,5.0,5.0,79,0.00,,SCT250,0.12,VWS V14.01,2013-06-16 00:17:00,
2013-06-15 19:22:00,72.7,65.8,29.84,South,177,4.0,6.0,79,0.00,,SCT250,0.12,VWS V14.01,2013-06-16 00:22:00,
2013-06-15 19:27:00,72.6,66.1,29.84,South,175,5.0,6.0,80,0.00,,SCT250,0.12,VWS V14.01,2013-06-16 00:27:00,
2013-06-15 19:32:00,72.7,66.2,29.84,South,183,3.0,6.0,80,0.00,,SCT250,0.12,VWS V14.01,2013-06-16 00:32:00,
2013-06-15 19:37:00,72.6,66.1,29.84,SSE,160,6.0,7.0,80,0.00,,SCT250,0.12,VWS V14.01,2013-06-16 00:37:00,
2013-06-15 19:42:00,72.5,66.3,29.84,South,179,6.0,6.0,81,0.00,,SCT250,0.12,VWS V14.01,2013-06-16 00:42:00,
2013-06-15 19:47:00,72.4,66.2,29.84,South,181,5.0,6.0,81,0.00,,SCT250,0.12,VWS V14.01,2013-06-16 00:47:00,
2013-06-15 19:52:00,72.3,66.5,29.85,SSW,192,6.0,6.0,82,0.00,,SCT250,0.12,VWS V14.01,2013-06-16 00:52:00,
2013-06-15 19:57:00,72.2,66.4,29.85,SSE,164,5.0,8.0,82,0.00,,SCT250,0.12,VWS V14.01,2013-06-16 00:57:00,
2013-06-15 20:02:00,72.0,66.2,29.85,South,179,6.0,8.0,82,0.00,,SCT250,0.12,VWS V14.01,2013-06-16 01:02:00,
2013-06-15 20:07:00,71.9,66.1,29.86,South,176,4.0,8.0,82,0.00,,SCT250,0.12,VWS V14.01,2013-06-16 01:07:00,
2013-06-15 20:12:00,71.8,66.0,29.86,South,176,5.0,7.0,82,0.00,,SCT250,0.12,VWS V14.01,2013-06-16 01:12:00,
2013-06-15 20:17:00,71.7,65.9,29.86,South,183,7.0,8.0,82,0.00,,SCT250,0.12,VWS V14.01,2013-06-16 01:17:00,
2013-06-15 20:22:00,71.5,65.7,29.86,SSE,166,7.0,9.0,82,0.00,,SCT250,0.12,VWS V14.01,2013-06-16 01:22:00,
2013-06-15 20:27:00,71.1,65.3,29.86,South,183,4.0,8.0,82,0.00,,SCT250,0.12,VWS V14.01,2013-06-16 01:27:00,
2013-06-15 20:32:00,70.9,65.8,29.86,SSE,167,5.0,5.0,84,0.00,,SCT250,0.12,VWS V14.01,2013-06-16 01:32:00,
2013-06-15 20:37:00,70.7,65.6,29.86,SSE,164,4.0,8.0,84,0.00,,SCT250,0.12,VWS V14.01,2013-06-16 01:37:00,
2013-06-15 20:42:00,70.5,65.8,29.86,SSE,152,5.0,6.0,85,0.00,,SCT250,0.12,VWS V14.01,2013-06-16 01:42:00,
2013-06-15 20:47:00,70.4,65.7,29.86,South,175,2.0,3.0,85,0.00,,SCT250,0.12,VWS V14.01,2013-06-16 01:47:00,
2013-06-15 20:52:00,70.3,65.9,29.85,SSE,162,3.0,3.0,86,0.00,,SCT250,0.12,VWS V14.01,2013-06-16 01:52:00,
2013-06-15 20:57:00,70.2,65.8,29.85,South,181,1.0,4.0,86,0.00,,SCT250,0.12,VWS V14.01,2013-06-16 01:57:00,
2013-06-15 21:02:00,70.1,65.7,29.85,ESE,122,3.0,4.0,86,0.00,,SCT250,0.12,VWS V14.01,2013-06-16 02:02:00,
2013-06-15 21:07:00,69.9,65.5,29.85,SSE,166,0.0,2.0,86,0.00,,SCT250,0.12,VWS V14.01,2013-06-16 02:07:00,
2013-06-15 21:12:00,69.7,65.7,29.85,South,181,0.0,1.0,87,0.00,,SCT250,0.12,VWS V14.01,2013-06-16 02:12:00,
2013-06-15 21:17:00,69.6,65.6,29.85,SSE,160,1.0,3.0,87,0.00,,SCT250,0.12,VWS V14.01,2013-06-16 02:17:00,
2013-06-15 21:22:00,69.4,65.7,29.85,SSE,160,2.0,2.0,88,0.00,,SCT250,0.12,VWS V14.01,2013-06-16 02:22:00,
2013-06-15 21:27:00,69.4,65.7,29.85,SSE,151,0.0,3.0,88,0.00,,SCT250,0.12,VWS V14.01,2013-06-16 02:27:00,
2013-06-15 21:32:00,69.3,65.6,29.85,SSE,152,0.0,1.0,88,0.00,,SCT250,0.12,VWS V14.01,2013-06-16 02:32:00,
2013-06-15 21:37:00,69.2,65.5,29.85,SSE,152,0.0,1.0,88,0.00,,SCT250,0.12,VWS V14.01,2013-06-16 02:37:00,
2013-06-15 21:42:00,69.1,65.7,29.85,SSE,152,0.0,0.0,89,0.00,,SCT250,0.12,VWS V14.01,2013-06-16 02:42:00,
2013-06-15 21:47:00,69.0,65.6,29.85,SSE,152,0.0,0.0,89,0.00,,SCT250,0.12,VWS V14.01,2013-06-16 02:47:00,
2013-06-15 21:52:00,68.9,65.5,29.86,SSE,152,0.0,0.0,89,0.00,,SCT250,0.12,VWS V14.01,2013-06-16 02:52:00,
2013-06-15 21:57:00,68.8,65.4,29.86,SSE,152,0.0,2.0,89,0.00,,SCT250,0.12,VWS V14.01,2013-06-16 02:57:00,
2013-06-15 22:02:00,68.6,65.6,29.86,East,88,1.0,2.0,90,0.00,,SCT250,0.12,VWS V14.01,2013-06-16 03:02:00,
2013-06-15 22:07:00,68.6,65.6,29.86,ENE,63,1.0,3.0,90,0.00,,SCT250,0.12,VWS V14.01,2013-06-16 03:07:00,
2013-06-15 22:12:00,68.6,65.6,29.86,ENE,70,1.0,1.0,90,0.00,,SCT250,0.12,VWS V14.01,2013-06-16 03:12:00,
2013-06-15 22:17:00,68.5,65.8,29.87,East,79,0.0,2.0,91,0.00,,SCT250,0.12,VWS V14.01,2013-06-16 03:17:00,
2013-06-15 22:22:00,68.5,65.8,29.87,East,79,0.0,1.0,91,0.00,,SCT250,0.12,VWS V14.01,2013-06-16 03:22:00,
2013-06-15 22:27:00,68.4,65.7,29.87,East,79,0.0,1.0,91,0.00,,SCT250,0.12,VWS V14.01,2013-06-16 03:27:00,
2013-06-15 22:32:00,68.5,65.8,29.87,East,92,1.0,3.0,91,0.00,,SCT250,0.12,VWS V14.01,2013-06-16 03:32:00,
2013-06-15 22:37:00,68.5,65.8,29.88,ENE,64,3.0,4.0,91,0.00,,SCT250,0.12,VWS V14.01,2013-06-16 03:37:00,
2013-06-15 22:42:00,68.6,65.9,29.88,ENE,61,3.0,3.0,91,0.00,,SCT250,0.12,VWS V14.01,2013-06-16 03:42:00,
2013-06-15 22:47:00,68.6,65.9,29.88,ESE,105,1.0,1.0,91,0.00,,SCT250,0.12,VWS V14.01,2013-06-16 03:47:00,
2013-06-15 22:52:00,68.6,65.6,29.88,ESE,109,0.0,1.0,90,0.00,,SCT250,0.12,VWS V14.01,2013-06-16 03:52:00,
2013-06-15 22:57:00,68.7,65.7,29.88,ESE,108,0.0,5.0,90,0.00,,SCT250,0.12,VWS V14.01,2013-06-16 03:57:00,
2013-06-15 23:01:00,68.7,65.7,29.88,ESE,122,2.0,2.0,90,0.00,,SCT250,0.12,VWS V14.01,2013-06-16 04:01:00,
2013-06-15 23:06:00,68.6,65.6,29.89,SSE,165,3.0,7.0,90,0.00,,SCT250,0.12,VWS V14.01,2013-06-16 04:06:00,
2013-06-15 23:11:00,68.7,65.7,29.89,ESE,109,3.0,3.0,90,0.00,,SCT250,0.12,VWS V14.01,2013-06-16 04:11:00,
2013-06-15 23:16:00,68.7,66.0,29.89,ESE,107,0.0,0.0,91,0.00,,SCT250,0.12,VWS V14.01,2013-06-16 04:16:00,
2013-06-15 23:21:00,68.6,65.9,29.89,ESE,115,2.0,2.0,91,0.00,,SCT250,0.12,VWS V14.01,2013-06-16 04:21:00,
2013-06-15 23:26:00,68.7,66.0,29.89,SSE,158,0.0,1.0,91,0.00,,SCT250,0.12,VWS V14.01,2013-06-16 04:26:00,
2013-06-15 23:31:00,68.7,66.0,29.89,SSE,166,2.0,4.0,91,0.00,,SCT250,0.12,VWS V14.01,2013-06-16 04:31:00,
2013-06-15 23:37:00,68.8,66.4,29.89,SSE,166,3.0,4.0,92,0.00,,SCT250,0.12,VWS V14.01,2013-06-16 04:37:00,
2013-06-15 23:42:00,68.8,66.4,29.90,SSE,154,2.0,3.0,92,0.00,,SCT250,0.12,VWS V14.01,2013-06-16 04:42:00,
2013-06-15 23:47:00,68.8,66.4,29.89,South,188,3.0,5.0,92,0.00,,SCT250,0.12,VWS V14.01,2013-06-16 04:47:00,
2013-06-15 23:52:00,68.8,66.7,29.90,South,184,3.0,5.0,93,0.00,,SCT250,0.12,VWS V14.01,2013-06-16 04:52:00,
2013-06-15 23:57:00,68.8,66.7,29.90,SSE,167,6.0,7.0,93,0.00,,SCT250,0.12,VWS V14.01,2013-06-16 04:57:00,